Location: Unspecified
(0.0000°N, 0.0000°E)
Time: 23:59:24
(UTC+00:00)

Hubble Space Telescope - Pass Details

Date: 12 July 2019
Orbit: 536 x 540 km, 28.5° (Epoch: 17 November)

Event Time Altitude Azimuth Distance (km) Brightness Sun altitude
Rises 19:59:52 0° 300° (WNW) 2,670 5.6 -26.3°
Reaches altitude 10° 20:02:07 10° 300° (WNW) 1,782 4.4 -26.8°
Enters shadow 20:04:55 42° 300° (WNW) 768 1.9 -27.5°
